[[{"header":{"parameterUnit":"m.s-1","parameterCategory":1,"la1":30.2991,"la2":30.254,"lo1":-89.0895,"lo2":-89.0444,"dy":0.0017,"dx":0.0017,"nx":28,"ny":28,"refTime":"2023-08-10T03:00:00:Z","depth":0,"parameterNumber":2,"parameterNumberName":"U-component_of_WINDS"},"data":[0,0,0,0,0,0,0,0,0,0,0,0,0,0,0,0,0,0,0,0,0,0,0,0,0,0,0,0,0,0,0,0,0,0,0,0,0,0,0,0,0,0,0,0,0,0,0,0,0,0,0,0,0,0,0,0,0,0,5.5341,5.5341,0,5.5384,5.5384,5.5385,5.5328,5.5326,5.5324,5.5322,5.5365,5.5368,5.5371,0,0,0,0,0,0,0,0,0,0,0,0,0,5.5208,5.5211,5.5341,5.5341,5.5342,5.5383,5.5384,5.5385,5.5329,5.5326,5.5324,5.5321,5.5364,5.5367,5.5371,0,0,0,0,0,0,0,0,0,0,0,0,0,5.526,5.5212,5.5341,5.5319,5.5317,5.5383,5.5384,5.5385,5.5329,5.5326,5.5323,5.532,5.5363,5.5367,5.5371,5.546,0,0,5.5385,5.5387,0,0,0,0,0,0,0,0,5.5257,5.5265,5.5322,5.532,5.5319,5.5347,5.5353,5.541,5.533,5.5325,5.5322,5.5319,5.5361,5.5366,5.538,5.5462,5.5464,5.5386,5.5388,5.539,5.5392,0,0,0,0,0,0,0,5.5253,5.5263,5.5358,5.5322,5.5321,5.5306,5.531,5.5363,5.536,5.5325,5.5321,5.5327,5.536,5.5376,5.5381,5.5465,5.5386,5.539,5.5392,5.5394,5.562,5.5623,0,0,0,0,0,0,5.5253,5.526,5.5356,5.5359,5.528,5.5311,5.5316,5.5341,5.5359,5.5359,5.5329,5.5324,5.537,5.5376,5.5382,5.5487,5.539,5.5395,5.5397,5.5617,5.5621,5.5625,0,0,0,0,0,0,5.525,5.5262,5.5354,5.5308,5.5319,5.5317,5.5346,5.5344,5.536,5.5362,5.5361,5.5347,5.5368,5.5376,5.5441,5.5487,5.5397,5.5401,5.5613,5.5618,5.5623,5.5697,0,0,0,0,0,0,5.5246,5.5261,5.5296,5.531,5.5322,5.5413,5.5349,5.5347,5.5368,5.5362,5.5378,5.5378,5.5366,5.5435,5.5446,5.5492,5.5404,5.5609,5.5615,5.5621,5.569,5.5703,5.5715,0,0,0,0,0,5.5242,5.5314,5.5298,5.5309,5.5365,5.5416,5.5423,5.5408,5.5372,5.5406,5.5407,5.5378,5.5481,5.5442,5.5454,5.5502,5.5606,5.5614,5.5621,5.5684,5.5701,5.5715,0,0,0,0,0,0,5.5305,5.5316,5.5297,5.5377,5.5396,5.5407,5.5449,5.5426,5.5456,5.5448,5.5428,5.5433,5.5502,5.5509,5.5465,5.5588,5.5537,5.5547,5.5581,5.5597,5.5609,5.5606,5.5408,0,0,0,0,0,5.5329,5.5371,5.5377,5.5446,5.5457,5.5452,5.5474,5.5461,5.548,5.5487,5.5493,5.5513,5.5549,5.5573,5.5607,5.5691,5.5693,5.573,5.5742,5.5752,5.5761,5.5804,5.5821,5.5649,5.5649,5.5649,0,0,5.5377,5.5388,5.5416,5.546,5.5473,5.5516,5.5459,5.5507,5.5538,5.5494,5.5556,5.5561,5.5581,5.5656,5.5689,5.5663,5.5809,5.5762,5.577,5.5773,5.5814,5.583,5.5844,5.5654,5.5653,5.5652,0,0,5.5487,5.55,5.5559,5.5574,5.5595,5.5591,5.5605,5.5619,5.5621,5.5683,5.565,5.5687,5.5751,5.5766,5.5782,5.5897,5.587,5.5909,5.5973,5.6016,5.6029,5.6041,5.6081,5.6096,5.5918,5.5918,5.5918,0,5.5545,5.5608,5.5592,5.5642,5.5662,5.5625,5.5683,5.5698,5.5729,5.5743,5.5714,5.5793,5.5804,5.5881,5.5909,5.5924,5.5938,5.5906,5.6029,5.6041,5.6052,5.6089,5.6105,5.5922,5.5922,5.5921,5.5921,0,5.5677,5.5722,5.5767,5.5798,5.5823,5.5877,5.5868,5.5895,5.588,5.5878,5.5941,5.5953,5.5988,5.6005,5.5991,5.608,5.6063,5.6032,5.598,5.6073,5.6108,5.6122,5.5929,5.5927,5.5926,5.5925,0,0,5.5828,5.585,5.5866,5.588,5.59,5.5934,5.5986,5.6021,5.6044,5.6066,5.6108,5.6163,5.6134,5.6152,5.6139,5.6177,5.6266,5.6141,5.6141,5.6163,5.6363,5.6386,5.6403,5.6249,5.6251,5.6253,5.6361,0,5.5938,5.6028,5.6015,5.6102,5.6142,5.6107,5.6152,5.6169,5.6169,5.6203,5.6202,5.6241,5.6201,5.6211,5.6247,5.6248,5.6306,5.624,5.6287,5.6288,5.6282,5.6422,5.6446,5.6547,5.6375,5.6377,5.6379,0,5.6077,5.6105,5.6196,5.621,5.6226,5.6267,5.6297,5.633,5.6348,5.6345,5.6366,5.6346,5.6396,5.6344,5.6413,5.6369,5.6387,5.639,5.6394,5.6397,5.6339,5.6427,5.6579,5.6594,5.6401,5.6399,5.6398,0,5.6177,5.6237,5.6299,5.6312,5.6329,5.6359,5.6367,5.6382,5.6404,5.643,5.6443,5.6475,5.6492,5.6517,5.6505,5.6469,5.6576,5.6524,5.6574,5.6575,5.6598,5.6596,5.6754,5.6612,5.6612,5.6611,5.6611,0,5.63,5.6357,5.6344,5.6382,5.6445,5.6428,5.649,5.6494,5.6508,5.6545,5.6517,5.6553,5.6536,5.657,5.6561,5.6619,5.6628,5.6626,5.6623,5.6628,5.6628,5.6639,5.6631,5.6615,5.6614,5.6614,5.6613,0,5.6421,5.6416,5.6481,5.6492,5.6496,5.6541,5.655,5.6585,5.6583,5.6631,5.6641,5.6637,5.6676,5.6667,5.671,5.6704,5.6776,5.6765,5.677,5.6767,5.6818,5.6813,5.6986,5.7008,5.6854,5.6855,5.6856,0,5.65,5.6543,5.6558,5.6582,5.6593,5.6631,5.6652,5.6637,5.6661,5.6684,5.6716,5.6753,5.6781,5.6844,5.6845,5.6877,5.6865,5.6924,5.6869,5.6873,5.6864,5.6861,5.6865,5.6934,5.6936,5.6937,5.6938,0,5.6639,5.6634,5.6666,5.6698,5.6725,5.6749,5.677,5.6791,5.6777,5.6805,5.6844,5.6866,5.6909,5.6945,5.6975,5.6982,5.6958,5.6956,5.6969,5.6974,5.6975,5.6974,5.6798,5.6951,5.695,5.6949,5.6949,5.6948,5.674,5.6776,5.6793,5.683,5.6845,5.6865,5.6898,5.69,5.6933,5.6967,5.6956,5.7001,5.7016,5.7053,5.7065,5.7099,5.7076,5.7096,5.71,5.7105,5.7111,5.6971,5.7104,5.7104,5.7103,5.7103,5.7103,0,5.6877,5.6886,5.692,5.6951,5.698,5.6955,5.6977,5.7003,5.7042,5.706,5.7088,5.7132,5.7167,5.717,5.7202,5.7229,5.7218,5.7237,5.7235,5.7236,5.713,5.7114,5.7245,5.7245,5.7245,5.7245,5.7245,5.7245,5.6951,5.7011,5.7007,5.7073,5.7081,5.7125,5.714,5.7158,5.7171,5.7223,5.7251,5.7253,5.7265,5.7297,5.7327,5.7327,5.734,5.7363,5.7359,5.7258,5.7244,5.7231,5.7216,5.7366,5.7366,5.7462,5.7463,5.7464]},{"header":{"parameterUnit":"m.s-1","parameterCategory":1,"la1":30.2991,"la2":30.254,"lo1":-89.0895,"lo2":-89.0444,"dy":0.0017,"dx":0.0017,"nx":28,"ny":28,"refTime":"2023-08-10T03:00:00:Z","depth":0,"parameterNumber":3,"parameterNumberName":"V-component_of_WINDS"},"data":[0,0,0,0,0,0,0,0,0,0,0,0,0,0,0,0,0,0,0,0,0,0,0,0,0,0,0,0,0,0,0,0,0,0,0,0,0,0,0,0,0,0,0,0,0,0,0,0,0,0,0,0,0,0,0,0,0,0,2.9138,2.9137,0,2.9068,2.9067,2.9066,2.9018,2.9017,2.9017,2.9016,2.8941,2.8939,2.8938,0,0,0,0,0,0,0,0,0,0,0,0,0,2.9224,2.9223,2.9138,2.9137,2.9136,2.9068,2.9067,2.9066,2.9018,2.9017,2.9017,2.9016,2.8942,2.894,2.8938,0,0,0,0,0,0,0,0,0,0,0,0,0,2.9174,2.9223,2.9138,2.9104,2.91,2.9068,2.9067,2.9066,2.9018,2.9017,2.9017,2.9016,2.8942,2.894,2.8937,2.8932,0,0,2.893,2.8928,0,0,0,0,0,0,0,0,2.9177,2.9171,2.911,2.9106,2.9102,2.9051,2.907,2.9021,2.9018,2.9049,2.9016,2.9016,2.8978,2.8972,2.896,2.8929,2.8926,2.8929,2.8928,2.8927,2.8926,0,0,0,0,0,0,0,2.918,2.9173,2.911,2.9109,2.9104,2.909,2.9082,2.906,2.9017,2.9046,2.9042,2.9035,2.8975,2.8963,2.8958,2.8925,2.8929,2.8927,2.8926,2.8925,2.8883,2.8883,0,0,0,0,0,0,2.919,2.9177,2.9112,2.9108,2.9139,2.9089,2.908,2.9068,2.9017,2.9009,2.9035,2.9033,2.8967,2.8961,2.8955,2.8944,2.8927,2.8924,2.8923,2.8882,2.8883,2.8883,0,0,0,0,0,0,2.9192,2.9184,2.9115,2.9141,2.9131,2.9088,2.9074,2.9067,2.9054,2.9009,2.9001,2.9031,2.8967,2.8959,2.8938,2.8941,2.8923,2.8921,2.8882,2.8883,2.8883,2.8924,0,0,0,0,0,0,2.9195,2.9186,2.9185,2.9142,2.913,2.9101,2.9074,2.9066,2.905,2.9046,2.9003,2.8995,2.8966,2.8942,2.8936,2.8937,2.8919,2.8881,2.8882,2.8883,2.8922,2.8926,2.8929,0,0,0,0,0,2.9198,2.9199,2.9185,2.9177,2.9128,2.9101,2.9094,2.9062,2.9051,2.9048,2.9019,2.8996,2.8942,2.894,2.8933,2.8934,2.8881,2.8882,2.8883,2.8921,2.8925,2.8929,0,0,0,0,0,0,2.9242,2.9193,2.9177,2.9164,2.9137,2.9093,2.9089,2.9068,2.9043,2.904,2.9,2.899,2.8973,2.8951,2.895,2.8925,2.8908,2.8908,2.894,2.8944,2.8948,2.8953,2.8917,0,0,0,0,0,2.9251,2.9235,2.9191,2.9184,2.9172,2.9133,2.912,2.9097,2.9067,2.9055,2.9025,2.8995,2.8971,2.8957,2.8932,2.8919,2.8907,2.8916,2.8919,2.8922,2.8922,2.8911,2.8913,2.8886,2.8886,2.8886,0,0,2.9268,2.9239,2.9231,2.9192,2.9169,2.9151,2.9124,2.9106,2.9092,2.9052,2.9031,2.9007,2.8971,2.8954,2.8945,2.8935,2.8927,2.8923,2.8926,2.8924,2.8912,2.8915,2.8917,2.8887,2.8887,2.8887,0,0,2.929,2.9267,2.9258,2.9235,2.92,2.9174,2.9172,2.913,2.9113,2.9091,2.9061,2.9042,2.9002,2.8978,2.896,2.897,2.8947,2.8963,2.8982,2.8971,2.8973,2.8975,2.8977,2.8978,2.8963,2.8964,2.8964,0,2.9315,2.9289,2.9255,2.9239,2.9222,2.9186,2.9175,2.9154,2.9113,2.9101,2.9091,2.9039,2.9013,2.8988,2.899,2.8978,2.8972,2.8968,2.8976,2.8977,2.8978,2.898,2.8981,2.8966,2.8965,2.8965,2.8965,0,2.9321,2.9302,2.9299,2.926,2.9243,2.923,2.9192,2.9178,2.9156,2.9131,2.9107,2.9074,2.9042,2.9034,2.9013,2.9005,2.9,2.8984,2.8966,2.8984,2.8984,2.8984,2.8969,2.8968,2.8967,2.8967,0,0,2.9369,2.9312,2.9311,2.9292,2.925,2.9235,2.9218,2.9188,2.9175,2.9148,2.9132,2.9098,2.9082,2.9062,2.9037,2.9028,2.9036,2.9012,2.901,2.9016,2.9023,2.9035,2.9037,2.9021,2.9021,2.9021,2.9026,0,2.9383,2.9354,2.9323,2.9304,2.9285,2.925,2.9236,2.9207,2.9182,2.9161,2.9133,2.911,2.9091,2.9078,2.9068,2.9037,2.9037,2.9037,2.9003,2.9003,2.9013,2.9037,2.905,2.9057,2.9026,2.9026,2.9026,0,2.9397,2.9371,2.9351,2.9309,2.93,2.9288,2.9256,2.9237,2.9203,2.9185,2.9162,2.9136,2.9114,2.91,2.9069,2.9069,2.9054,2.9036,2.9035,2.903,2.9015,2.9032,2.9059,2.9059,2.9026,2.9026,2.9026,0,2.9432,2.9393,2.9375,2.936,2.9311,2.9303,2.9282,2.9248,2.9231,2.9202,2.919,2.9159,2.9142,2.9117,2.9082,2.9075,2.9054,2.9037,2.9037,2.9038,2.9034,2.9034,2.9057,2.9026,2.9026,2.9025,2.9025,0,2.9451,2.944,2.939,2.9379,2.9364,2.9327,2.9313,2.9288,2.9258,2.924,2.9207,2.919,2.9145,2.9122,2.9094,2.9072,2.9064,2.9048,2.904,2.905,2.9052,2.9039,2.9037,2.9026,2.9026,2.9026,2.9026,0,2.9488,2.9455,2.9433,2.9388,2.9377,2.9368,2.9328,2.9315,2.9288,2.9265,2.9258,2.9215,2.9186,2.9149,2.9108,2.9089,2.9069,2.9058,2.9081,2.9076,2.9078,2.9078,2.9093,2.9092,2.9062,2.9062,2.9063,0,2.9502,2.9492,2.9447,2.9433,2.9413,2.9392,2.9374,2.9336,2.9319,2.9278,2.9269,2.9238,2.9212,2.9167,2.9131,2.9099,2.9086,2.9093,2.9081,2.909,2.9084,2.9085,2.9083,2.9096,2.9097,2.9097,2.9097,0,2.9529,2.9513,2.949,2.946,2.944,2.9415,2.9387,2.9377,2.9333,2.9315,2.9286,2.9265,2.9224,2.9192,2.9155,2.9131,2.9106,2.9102,2.91,2.9109,2.9122,2.9114,2.9088,2.9101,2.9101,2.9101,2.91,2.91,2.9554,2.9543,2.9509,2.9484,2.9459,2.9434,2.9419,2.939,2.9366,2.933,2.9309,2.928,2.9243,2.9192,2.9168,2.9144,2.9134,2.9132,2.9131,2.9131,2.9133,2.9127,2.9137,2.9137,2.9136,2.9136,2.9136,0,2.9579,2.9555,2.9532,2.9495,2.9474,2.9454,2.9422,2.9406,2.9381,2.935,2.9325,2.929,2.9259,2.922,2.9186,2.9173,2.9161,2.9165,2.9165,2.916,2.9144,2.9149,2.9176,2.9176,2.9176,2.9176,2.9176,2.9176,2.9589,2.9569,2.9548,2.9515,2.949,2.9463,2.9446,2.9422,2.9397,2.9361,2.9335,2.9311,2.9275,2.9238,2.9208,2.9197,2.9185,2.9193,2.9179,2.9165,2.9161,2.9158,2.9162,2.9191,2.9191,2.9196,2.9196,2.9196]}]]